User: anonymous   Login
Location: Unspecified
(0.0000°N, 0.0000°E)
Time: 19:21:52
(UTC+00:00)
Language:

Amsat-Oscar-8 - Orbit

View from above orbital plane
View from above orbital plane
View from above satellite
View from above satellite

Ground track
Ground track

The orbit data is extracted from the following two-line orbital elements,

1 10703U 78026B   18139.86973806 -.00000179 +00000-0 -93568-4 0  9997
2 10703 098.9371 098.3606 0007511 122.0032 291.4223 13.99235319051426
Epoch (UTC): 19 May 2018 20:52:25
Eccentricity: 0.0007511
inclination: 98.9371°
perigee height: 891 km
apogee height: 902 km
right ascension of ascending node: 98.3606°
argument of perigee: 122.0032°
revolutions per day: 13.99235319
mean anomaly at epoch: 291.4223°
orbit number at epoch: 5142

The dashed part of the orbit path shows where the satellite is in the earth's shadow,  

DLR